Regional Weather Roundup
Issued by NWS

Home | Current Version | Previous Version | Text Only | Print | Product List | Glossary Off
Versions: 1 2 3 4 5 6 7 8 9 10 11 12 13 14 15 16 17 18 19 20 21 22 23 24 25 26 27 28 29 30 31 32 33 34 35 36 37 38 39 40 41 42 43 44 45 46 47 48 49 50

000
ASUS43 KLMK 251102
RWRKY
KENTUCKY REGIONAL WEATHER ROUNDUP
NATIONAL WEATHER SERVICE LOUISVILLE KY
700 AM EDT WED MAY 25 2016

NOTE "FAIR" INDICATES FEW OR NO CLOUDS BELOW 12,000 FEET
WITH NO SIGNIFICANT WEATHER AND/OR OBSTRUCTIONS TO VISIBILITY.

KYZ001>023-026-027-061>063-070>075-251200-
WESTERN AND SOUTH CENTRAL KENTUCKY

CITY           SKY/WX    TMP DP  RH WIND       PRES   REMARKS
PADUCAH        CLOUDY    66  61  84 S6        30.06R
HENDERSON      CLOUDY    66  59  77 CALM      30.05R
OWENSBORO      CLOUDY    69  62  78 E5        30.06S
HOPKINSVILLE   NOT AVBL
BOWLING GREEN  CLOUDY    69  58  67 S6        30.10R
GLASGOW        NOT AVBL
$$

KYZ024-025-028>034-038-045-046-053-251200-
NORTH CENTRAL KENTUCKY

CITY           SKY/WX    TMP DP  RH WIND       PRES   REMARKS
LOUISVILLE/SDF CLOUDY    68  56  65 SE6       30.09R
LOUISVILLE/LOU CLOUDY    69  56  62 SE3       30.09R
FORT KNOX      CLOUDY    66  57  73 SE2       30.09R
$$

KYZ035>037-039>044-047>052-055>060-089>105-251200-
NORTHEAST KENTUCKY

CITY           SKY/WX    TMP DP  RH WIND       PRES   REMARKS
LEXINGTON      CLOUDY    63  50  62 SE8       30.13S
COVINGTON      CLOUDY    65  54  67 S5        30.11S
FRANKFORT      MOCLDY    64  52  64 S6        30.11R
$$

KYZ054-064>069-076>088-106>120-251200-
SOUTHEAST KENTUCKY

CITY           SKY/WX    TMP DP  RH WIND       PRES   REMARKS
JACKSON        MOCLDY    61  47  59 SE3       30.18S
LONDON         CLEAR     55  50  83 CALM      30.17R
SOMERSET       NOT AVBL
MIDDLESBORO    CLEAR     51  50  98 CALM      30.23R
MONTICELLO     CLOUDY    62  57  83 W12       30.17R
$$





USA.gov is the U.S. government's official web portal to all federal, state and local government web resources and services.